TimeEST,TemperatureF,Dew PointF,Humidity,Sea Level PressureIn,VisibilityMPH,Wind Direction,Wind SpeedMPH,Gust SpeedMPH,PrecipitationIn,Events,Conditions,WindDirDegrees,DateUTC
12:15 AM,26.6,24.8,93,30.15,10.0,Calm,Calm,-,N/A,,Clear,0,2013-03-04 05:15:00
12:35 AM,26.6,24.8,93,30.15,10.0,Calm,Calm,-,N/A,,Clear,0,2013-03-04 05:35:00
12:55 AM,26.6,24.8,93,30.15,10.0,Calm,Calm,-,N/A,,Clear,0,2013-03-04 05:55:00
1:15 AM,26.6,24.8,93,30.15,10.0,Calm,Calm,-,N/A,,Clear,0,2013-03-04 06:15:00
1:35 AM,26.6,24.8,93,30.15,10.0,Calm,Calm,-,N/A,,Clear,0,2013-03-04 06:35:00
1:55 AM,24.8,24.8,100,30.15,10.0,Calm,Calm,-,N/A,,Clear,0,2013-03-04 06:55:00
2:15 AM,24.8,24.8,100,30.15,10.0,Calm,Calm,-,N/A,,Clear,0,2013-03-04 07:15:00
2:35 AM,24.8,24.8,100,30.15,9.0,Calm,Calm,-,N/A,,Clear,0,2013-03-04 07:35:00
2:55 AM,24.8,24.8,100,30.15,10.0,Calm,Calm,-,N/A,,Clear,0,2013-03-04 07:55:00
3:15 AM,24.8,24.8,100,30.15,10.0,Calm,Calm,-,N/A,,Clear,0,2013-03-04 08:15:00
3:35 AM,24.8,24.8,100,30.16,10.0,Calm,Calm,-,N/A,,Clear,0,2013-03-04 08:35:00
3:55 AM,26.6,24.8,93,30.16,10.0,Calm,Calm,-,N/A,,Clear,0,2013-03-04 08:55:00
4:15 AM,24.8,24.8,100,30.17,8.0,Calm,Calm,-,N/A,,Clear,0,2013-03-04 09:15:00
4:35 AM,24.8,24.8,100,30.17,8.0,Calm,Calm,-,N/A,,Clear,0,2013-03-04 09:35:00
4:55 AM,24.8,24.8,100,30.17,8.0,Calm,Calm,-,N/A,,Clear,0,2013-03-04 09:55:00
5:15 AM,26.6,24.8,93,30.18,10.0,Calm,Calm,-,N/A,,Clear,0,2013-03-04 10:15:00
5:35 AM,26.6,24.8,93,30.19,10.0,Calm,Calm,-,N/A,,Clear,0,2013-03-04 10:35:00
6:15 AM,24.8,24.8,100,30.20,7.0,Calm,Calm,-,N/A,,Clear,0,2013-03-04 11:15:00
6:50 AM,24.8,23.0,93,30.20,10.0,Calm,Calm,-,N/A,,Clear,0,2013-03-04 11:50:00
7:50 AM,-9999,-9999,N/A,30.21,10.0,Calm,Calm,-,N/A,,Clear,0,2013-03-04 12:50:00
8:50 AM,41.0,26.6,57,30.22,10.0,North,10.4,-,N/A,,Clear,360,2013-03-04 13:50:00
9:50 AM,46.4,23.0,40,30.24,10.0,North,9.2,-,N/A,,Clear,360,2013-03-04 14:50:00
10:50 AM,50.0,19.4,30,30.24,10.0,North,15.0,-,N/A,,Clear,350,2013-03-04 15:50:00
11:50 AM,53.6,23.0,30,30.22,6.0,WNW,10.4,-,N/A,,Smoke,300,2013-03-04 16:50:00
12:50 PM,55.4,23.0,29,30.19,6.0,North,5.8,-,N/A,,Smoke,360,2013-03-04 17:50:00
1:50 PM,57.2,23.0,27,30.16,7.0,NW,6.9,-,N/A,,Clear,320,2013-03-04 18:50:00
2:50 PM,60.8,26.6,27,30.15,7.0,Variable,4.6,-,N/A,,Clear,0,2013-03-04 19:50:00
3:50 PM,62.6,28.4,27,30.13,7.0,Calm,Calm,-,N/A,,Clear,0,2013-03-04 20:50:00
4:50 PM,64.4,28.4,26,30.13,7.0,Calm,Calm,-,N/A,,Clear,0,2013-03-04 21:50:00
5:50 PM,62.6,32.0,32,30.14,7.0,Variable,4.6,-,N/A,,Clear,0,2013-03-04 22:50:00
7:50 PM,46.4,35.6,66,30.15,7.0,Calm,Calm,-,N/A,,Clear,0,2013-03-05 00:50:00
8:15 PM,42.8,35.6,76,30.16,10.0,Calm,Calm,-,N/A,,Clear,0,2013-03-05 01:15:00
8:35 PM,42.8,35.6,76,30.16,10.0,Calm,Calm,-,N/A,,Clear,0,2013-03-05 01:35:00
8:55 PM,41.0,35.6,81,30.16,10.0,Calm,Calm,-,N/A,,Clear,0,2013-03-05 01:55:00
9:15 PM,39.2,35.6,87,30.17,10.0,Calm,Calm,-,N/A,,Clear,0,2013-03-05 02:15:00
9:35 PM,39.2,35.6,87,30.17,10.0,Calm,Calm,-,N/A,,Clear,0,2013-03-05 02:35:00
9:55 PM,39.2,35.6,87,30.17,10.0,Calm,Calm,-,N/A,,Clear,0,2013-03-05 02:55:00
10:35 PM,39.2,35.6,87,30.17,10.0,Calm,Calm,-,N/A,,Clear,0,2013-03-05 03:35:00
10:55 PM,44.6,37.4,76,30.17,10.0,Calm,Calm,-,N/A,,Clear,0,2013-03-05 03:55:00
11:15 PM,46.4,37.4,71,30.17,10.0,Calm,Calm,-,N/A,,Clear,0,2013-03-05 04:15:00
11:35 PM,42.8,37.4,81,30.17,10.0,Calm,Calm,-,N/A,,Clear,0,2013-03-05 04:35:00
11:55 PM,39.2,35.6,87,30.16,10.0,Calm,Calm,-,N/A,,Clear,0,2013-03-05 04:55:00